Weather History for St. Joseph, MO

Change the Weather History Date:

Monday, January 7, 2013

  Actual Average Record
Temperature  
Mean Temperature 36 °F 26 °F  
Max Temperature 47 °F 36 °F 62 °F (2006)
Min Temperature 24 °F 17 °F -15 °F (1971)
Degree Days  
Heating Degree Days 29 38  
Month to date heating degree days 285 269  
Since 1 July heating degree days 2381 2482  
Cooling Degree Days 0 0  
Month to date cooling degree days 0 0  
Year to date cooling degree days 0 0  
Moisture  
Dew Point 23 °F    
Average Humidity 59    
Maximum Humidity 75    
Minimum Humidity 42    
Precipitation  
Precipitation 0.00 in 0.02 in 1.38 in (1937)
Month to date precipitation T 0.14  
Year to date precipitation T 0.14  
Sea Level Pressure  
Sea Level Pressure 30.14 in    
Wind  
Wind Speed 10 mph (South)    
Max Wind Speed 23 mph    
Max Gust Speed 31 mph    
Visibility 10 miles    
Events      
T = Trace of Precipitation, MM = Missing Value Source: NWS Daily Summary

Daily Weather History Graph

Daily Weather History Graph

Search for Another Location

Airport:

Trip Planner

Search our weather history database for the weather conditions in past years. The results will help you decide how hot, cold, wet, or windy it might be!

Date:

Astronomy

Jan. 07, 2013 Rise Set
Actual Time 7:40 AM CST 5:11 PM CST
Civil Twilight 7:10 AM CST 5:41 PM CST
Nautical Twilight 6:37 AM CST 6:15 PM CST
Astronomical Twilight 6:04 AM CST 6:47 PM CST
Moon 3:05 AM CST (1/7) 1:23 PM CST (1/7)
Length of Visible Light 10h 30m
Length of Day
9h 30m
Waning Crescent, 22% of the Moon is Illuminated
Jan 7
Waning Crescent
Jan 11
New
Jan 18
First Quarter
Jan 26
Full
Feb 3
Last Quarter

Hourly Weather History & Observations

Time (CST) Temp. Windchill Dew Point Humidity Pressure Visibility Wind Dir Wind Speed Gust Speed Precip Events Conditions
12:53 AM 28.9 °F 19.8 °F 19.0 °F 67% 30.27 in 10.0 mi South 10.4 mph - N/A   Clear
1:53 AM 30.0 °F 21.7 °F 19.9 °F 66% 30.26 in 10.0 mi South 9.2 mph - N/A   Clear
2:53 AM 28.0 °F 20.8 °F 19.0 °F 69% 30.25 in 10.0 mi South 6.9 mph - N/A   Clear
3:53 AM 28.0 °F 20.0 °F 19.0 °F 69% 30.24 in 10.0 mi South 8.1 mph - N/A   Clear
4:53 AM 27.0 °F 18.7 °F 19.0 °F 72% 30.22 in 10.0 mi South 8.1 mph - N/A   Clear
5:53 AM 28.0 °F 19.3 °F 19.9 °F 72% 30.22 in 10.0 mi SSW 9.2 mph - N/A   Clear
6:53 AM 28.9 °F 21.1 °F 19.9 °F 69% 30.22 in 10.0 mi SSW 8.1 mph - N/A   Clear
7:53 AM 28.9 °F 19.2 °F 19.9 °F 69% 30.20 in 10.0 mi South 11.5 mph - N/A   Clear
8:53 AM 35.1 °F 25.2 °F 21.0 °F 57% 30.19 in 10.0 mi South 16.1 mph - N/A   Clear
9:53 AM 39.0 °F 29.0 °F 21.9 °F 50% 30.17 in 10.0 mi South 20.7 mph 29.9 mph N/A   Clear
10:53 AM 41.0 °F 34.3 °F 24.1 °F 51% 30.18 in 10.0 mi SSW 11.5 mph 21.9 mph N/A   Clear
11:53 AM 45.0 °F 39.7 °F 25.0 °F 46% 30.14 in 10.0 mi SW 10.4 mph - N/A   Clear
1:53 PM 46.0 °F 40.2 °F 26.1 °F 46% 30.07 in 10.0 mi South 12.7 mph 21.9 mph N/A   Clear
2:53 PM 46.0 °F 39.6 °F 26.1 °F 46% 30.06 in 10.0 mi South 15.0 mph 24.2 mph N/A   Clear
3:53 PM 46.0 °F 39.6 °F 26.1 °F 46% 30.05 in 10.0 mi SSW 15.0 mph - N/A   Clear
5:53 PM 39.0 °F 33.4 °F 27.0 °F 62% 30.07 in 10.0 mi South 8.1 mph - N/A   Clear
6:53 PM 37.0 °F 32.4 °F 26.1 °F 65% 30.06 in 10.0 mi South 5.8 mph - N/A   Clear
7:53 PM 37.0 °F 32.4 °F 26.1 °F 65% 30.06 in 10.0 mi South 5.8 mph - N/A   Clear
8:53 PM 35.1 °F 29.3 °F 26.1 °F 70% 30.06 in 10.0 mi South 6.9 mph - N/A   Clear
9:53 PM 37.0 °F 30.4 °F 26.1 °F 65% 30.05 in 10.0 mi South 9.2 mph - N/A   Clear
10:53 PM 35.1 °F 27.9 °F 26.1 °F 70% 30.04 in 10.0 mi South 9.2 mph - N/A   Clear
11:53 PM 35.1 °F 30.1 °F 26.1 °F 70% 30.04 in 10.0 mi South 5.8 mph - N/A   Clear